Wind_Speed
17 17 17 17 15 13 9 6 9 17 20 22 19 18 18 18 15 14 12 12 11 11 10 10 9 10 10 10 10 10 10 9 9 9 8 8 8 8 7 6 5 4 3 2 2 1 0 1 1
18 18 18 17 15 11 5 6 14 20 22 19 17 17 19 18 18 17 14 12 12 11 11 11 11 11 11 11 11 11 11 10 10 9 9 9 9 8 8 7 7 6 5 4 3 3 2 2 1
18 19 18 17 14 9 6 12 20 24 24 19 16 17 20 19 19 17 16 15 13 12 12 12 12 12 12 12 11 12 12 11 11 11 10 10 10 10 10 9 8 7 7 6 5 5 4 3 3
18 18 18 17 14 10 11 17 22 23 22 18 17 19 21 20 20 18 17 17 15 15 13 13 13 13 13 13 12 12 12 12 12 12 12 12 12 12 11 11 10 9 8 7 7 7 6 5 4
17 17 17 16 13 13 17 22 23 21 19 18 18 20 22 22 22 20 18 17 17 16 16 15 14 14 14 14 14 13 13 13 13 13 13 14 14 14 13 12 12 11 10 9 9 9 8 8 7
16 16 15 13 11 15 20 25 25 23 19 18 19 21 23 22 18 18 18 17 17 16 15 15 15 15 15 15 16 16 15 15 15 15 15 15 15 15 15 14 14 13 12 11 11 11 10 9 9
16 15 14 11 10 16 21 25 23 19 16 17 19 22 24 23 19 16 17 17 17 16 16 16 16 16 16 16 16 17 17 17 16 16 16 17 17 16 16 16 15 15 14 14 13 12 11 11 11
15 16 15 12 13 18 23 25 22 19 17 18 19 23 25 24 18 15 16 16 16 16 16 16 16 16 17 17 17 17 17 17 17 18 18 18 18 18 18 18 17 17 16 16 15 14 14 13 13
15 15 14 11 13 17 22 23 20 18 20 21 22 25 26 20 18 16 16 16 17 17 16 16 17 17 17 17 18 18 18 18 18 19 19 19 19 19 19 19 19 19 18 18 17 16 16 15 14
14 14 11 12 15 18 20 21 17 17 20 22 23 25 25 22 19 17 18 18 18 17 16 17 17 17 17 17 18 18 19 19 19 19 20 20 20 20 20 21 21 21 20 20 19 18 17 17 16
15 15 14 18 21 22 20 18 17 17 16 18 22 25 25 23 20 17 18 18 20 19 17 17 16 16 16 17 17 18 19 20 20 20 21 21 21 21 21 21 21 21 21 21 20 20 19 18 18
17 18 19 20 23 23 21 20 19 18 16 20 24 25 23 20 17 18 19 21 23 22 18 18 17 17 17 17 18 18 19 20 21 22 22 22 22 22 22 22 21 22 22 22 21 21 20 20 20
18 19 20 21 21 21 21 21 20 18 20 22 23 22 22 19 19 21 23 24 24 22 18 17 18 17 18 18 18 19 19 20 21 21 22 22 23 23 23 23 22 23 23 23 23 22 23 22 21
17 18 19 20 19 19 19 20 19 19 21 23 23 23 21 20 20 21 24 25 25 22 18 17 17 17 19 19 19 20 21 21 22 23 24 24 25 24 23 23 23 23 23 23 23 23 24 24 23
16 17 16 16 16 16 16 17 18 17 20 20 21 22 22 23 25 25 25 25 23 18 17 17 18 19 20 20 20 21 22 23 23 25 25 26 26 25 24 24 24 25 24 24 23 23 24 24 24
14 14 13 13 14 14 14 15 16 17 18 19 20 22 23 23 25 25 25 23 22 21 18 18 19 20 21 21 21 22 23 24 25 26 27 27 27 25 25 25 26 26 26 25 25 24 25 25 25
11 11 10 12 13 13 12 14 17 18 16 18 20 21 21 22 24 25 24 23 22 21 20 21 22 21 22 23 24 24 25 25 26 28 28 28 27 27 27 27 27 27 27 27 28 27 26 26 26
7 7 9 14 14 12 11 13 19 20 17 17 19 21 22 22 23 24 24 23 23 22 23 23 24 23 24 25 25 25 26 27 27 28 28 29 28 28 29 29 28 28 28 28 30 30 29 29 28
10 11 13 15 15 12 12 15 19 18 16 17 19 20 22 22 20 22 23 22 23 24 24 25 25 26 26 26 26 26 27 28 28 28 29 30 30 31 30 30 30 29 29 29 30 31 31 30 29
15 15 15 15 16 13 12 16 19 17 17 17 19 20 21 22 21 22 23 23 24 24 25 26 26 27 27 27 27 27 27 28 29 29 30 30 31 31 31 31 30 30 31 31 31 31 31 31 31
15 15 15 17 17 15 14 17 19 19 18 18 19 21 21 22 22 22 23 23 24 25 26 27 27 28 28 28 28 28 29 29 30 30 31 31 31 31 31 31 31 31 32 31 31 30 31 31 31
14 15 14 15 14 13 14 16 20 22 20 19 18 20 21 22 22 22 23 24 25 26 27 27 28 28 29 30 31 31 31 31 32 32 31 31 31 31 31 31 31 31 32 32 32 33 32 32 32
13 14 15 15 15 15 15 16 20 21 21 19 16 18 20 20 21 22 23 24 25 26 26 27 27 28 28 29 30 31 31 31 32 32 32 32 32 31 31 32 32 32 33 33 34 34 33 33 33
11 12 13 15 16 16 17 17 19 22 20 18 15 16 19 20 21 22 23 24 25 26 27 27 27 27 28 28 29 30 30 31 32 32 32 32 31 31 31 31 31 32 32 33 33 33 33 34 34
13 13 12 14 14 15 16 17 20 21 19 18 15 17 20 21 22 23 24 25 26 27 27 27 28 28 29 29 30 30 30 31 32 32 32 31 31 31 30 31 31 31 32 32 32 32 32 33 33
11 11 12 13 13 13 14 17 20 20 18 18 19 21 21 23 23 24 24 25 26 26 27 27 28 28 29 29 30 30 31 31 31 31 31 31 31 31 31 31 31 32 32 31 31 32 32 32 32
10 10 12 13 12 14 13 15 18 18 18 17 19 20 21 23 23 23 24 25 26 26 26 27 27 28 28 28 29 30 31 31 31 31 30 30 31 31 31 31 31 31 31 31 31 31 31 31 31
12 12 13 12 12 12 11 14 18 18 19 18 18 20 22 24 23 24 25 26 27 27 27 28 28 28 28 29 30 30 30 30 30 30 30 30 30 30 30 30 30 30 30 30 30 29 30 30 30
11 13 14 13 14 14 15 15 19 17 18 17 20 22 23 24 25 26 27 28 28 29 29 29 29 29 29 29 29 29 29 29 29 29 29 29 29 29 29 29 28 28 27 27 27 28 27 27 27
13 13 14 14 15 17 20 20 18 18 19 19 21 22 24 25 26 27 28 28 29 29 29 30 30 29 30 29 29 29 28 28 29 29 29 28 28 28 28 27 26 25 25 24 24 24 25 26 25
Wind_Direction
256 254 253 252 251 247 245 215 219 240 244 245 238 234 236 234 240 237 240 242 241 240 239 236 233 230 226 223 221 221 222 225 230 239 244 248 250 249 245 246 250 253 256 261 264 272 303 353 11
257 254 251 250 247 243 264 242 228 239 245 250 242 234 238 239 241 237 241 242 243 243 240 238 238 235 232 230 229 228 229 232 236 242 243 247 251 253 253 254 256 258 259 262 262 263 271 277 292
255 252 250 247 241 223 222 235 232 239 249 252 243 235 238 242 240 236 242 245 246 247 243 241 240 238 235 234 232 233 234 236 239 244 248 250 253 255 258 259 258 258 260 263 262 263 267 265 267
254 251 247 244 234 215 219 226 232 242 252 251 242 239 241 242 244 243 242 243 246 247 246 245 243 242 240 238 237 238 239 241 242 246 250 252 254 257 260 260 259 260 262 264 265 264 264 266 263
253 249 245 241 230 218 229 237 236 239 253 255 245 243 242 242 239 238 241 243 245 246 247 248 245 243 243 242 241 241 242 245 247 249 252 255 256 258 260 260 261 263 265 265 267 266 265 267 262
250 246 241 236 227 228 232 240 243 246 250 254 248 245 245 236 233 238 243 244 245 245 248 249 248 247 246 246 245 245 245 247 250 253 254 255 257 258 260 261 262 263 265 266 268 266 266 267 264
245 240 234 223 232 240 241 244 248 246 241 245 247 245 244 238 232 229 240 246 248 248 250 251 251 249 248 248 248 247 248 249 251 253 256 257 258 260 261 261 261 262 264 265 267 268 268 266 266
242 237 228 213 226 239 246 249 246 237 231 235 236 241 246 240 229 230 242 248 251 250 250 251 251 251 250 250 248 248 250 251 253 254 256 259 260 261 262 262 262 263 264 265 266 268 268 266 266
239 236 229 215 229 239 249 254 251 239 233 235 237 240 245 241 239 238 244 250 253 253 252 252 252 252 252 252 251 251 252 253 255 257 258 259 260 261 262 264 263 263 264 264 264 264 264 265 265
234 228 220 217 225 233 245 254 251 245 240 240 243 247 250 251 246 242 245 248 251 250 251 250 251 254 252 252 254 254 255 257 258 260 261 261 261 261 261 262 263 263 263 263 263 262 262 262 263
226 218 212 219 221 222 233 244 241 240 240 245 248 250 249 253 248 248 245 246 251 254 256 251 254 256 259 258 257 258 258 259 261 262 263 263 263 261 261 262 263 264 263 261 261 261 262 261 261
223 220 221 228 231 230 229 234 237 235 237 241 243 249 249 245 244 252 255 259 258 252 258 260 264 265 262 261 262 262 264 262 264 265 268 267 266 263 262 264 265 265 264 262 259 260 261 261 261
227 225 228 235 236 234 231 235 236 234 236 240 247 250 248 245 243 248 249 252 251 250 252 262 264 264 265 265 266 266 266 267 268 271 272 270 269 267 264 264 263 263 264 262 259 258 259 260 260
230 229 234 240 240 238 238 239 242 239 240 243 250 255 252 251 251 251 250 250 250 250 253 261 266 270 271 270 269 269 269 270 272 273 272 271 268 266 265 264 265 264 264 265 264 260 260 260 261
230 233 237 241 241 243 242 242 244 245 246 250 251 255 256 255 250 248 248 255 258 265 266 267 270 272 274 274 273 273 273 272 272 271 271 270 269 267 267 268 267 269 266 265 265 263 263 263 263
229 231 234 242 241 241 240 242 243 243 250 255 254 255 253 253 254 256 260 262 265 273 276 272 273 273 274 276 277 277 277 275 274 273 272 273 270 270 268 268 267 268 268 268 269 268 266 265 265
224 228 225 237 245 240 236 233 244 244 249 253 255 256 255 256 261 268 272 276 280 282 281 277 275 274 275 277 278 277 276 275 273 274 274 273 271 269 268 267 267 268 269 268 269 271 268 267 268
221 228 222 229 249 238 229 227 244 250 249 255 256 257 258 259 261 265 271 276 281 282 281 279 276 277 277 277 277 276 276 274 273 275 275 274 272 270 268 266 266 268 268 268 268 269 268 268 269
199 211 221 228 240 237 226 233 245 253 256 258 259 259 259 261 265 266 271 276 278 278 277 277 278 276 276 276 277 276 274 274 273 275 275 275 272 273 271 270 269 268 266 266 268 269 268 268 268
199 202 211 219 236 234 223 237 248 254 257 254 258 261 260 266 268 267 272 276 276 276 277 277 277 277 277 277 276 275 274 272 272 274 274 275 273 272 272 271 269 269 268 268 269 269 267 267 266
200 196 204 222 235 236 224 232 247 254 255 253 259 263 264 267 267 269 273 275 277 278 278 278 277 276 276 275 274 274 274 274 274 274 274 274 274 274 272 271 270 270 268 266 267 267 266 266 264
202 202 207 225 228 234 236 237 248 255 260 257 258 262 265 267 269 270 272 275 278 279 279 279 278 277 276 275 273 273 273 273 274 273 273 273 273 272 273 272 272 270 268 265 264 265 268 265 264
203 206 209 221 228 227 240 245 252 258 265 263 255 263 269 272 273 274 275 278 279 280 280 279 279 278 277 276 275 274 273 274 274 273 273 273 273 272 273 273 272 270 269 266 265 265 266 264 263
199 211 217 223 232 231 235 245 255 264 265 263 263 272 279 279 278 279 279 280 282 283 282 280 277 277 278 278 277 276 275 274 274 274 274 273 273 273 272 272 272 270 269 267 265 264 264 264 262
207 212 229 239 240 240 236 241 257 269 275 275 277 288 287 283 282 282 282 283 283 284 283 281 279 278 278 277 276 275 275 275 275 274 274 273 272 273 272 272 272 271 270 268 266 264 263 263 261
212 209 234 251 264 261 241 238 245 257 268 275 285 290 288 285 284 283 283 285 286 286 285 284 282 280 279 277 276 275 275 275 274 273 273 272 272 273 273 274 273 271 269 269 267 264 262 262 260
218 225 238 250 263 264 250 241 240 252 263 274 285 288 287 285 284 284 286 288 288 287 287 286 285 283 281 279 278 277 276 275 274 274 274 273 273 273 273 274 273 271 269 269 267 264 262 262 259
221 225 241 251 269 278 277 260 259 266 268 273 282 288 289 287 287 287 289 289 289 288 288 287 286 284 282 281 280 279 277 275 274 274 274 273 274 274 274 275 274 272 270 268 267 266 263 260 257
231 229 233 242 252 270 275 272 276 280 280 285 292 292 290 290 290 291 291 290 290 290 288 287 286 284 283 281 280 279 277 276 275 274 273 273 274 274 274 275 273 272 270 267 266 267 264 259 256
232 235 240 241 245 255 270 277 279 286 290 292 296 296 294 293 292 293 293 292 292 291 289 287 285 284 283 282 281 278 278 278 276 274 273 273 273 272 272 271 270 269 268 267 266 267 264 262 258
Height
5872 5874 5875 5877 5880 5882 5884 5887 5890 5888 5887 5887 5888 5888 5887 5888 5889 5891 5888 5888 5890 5890 5890 5891 5892 5893 5894 5894 5895 5896 5897 5898 5898 5899 5900 5900 5901 5901 5901 5901 5900 5900 5900 5900 5899 5899 5899 5899 5898
5869 5871 5872 5874 5877 5879 5883 5886 5888 5885 5883 5884 5885 5886 5885 5886 5886 5887 5887 5887 5888 5888 5889 5890 5891 5892 5893 5893 5894 5895 5896 5897 5897 5898 5899 5899 5900 5900 5900 5900 5900 5900 5900 5899 5899 5899 5899 5899 5898
5865 5867 5869 5871 5874 5877 5883 5886 5884 5880 5880 5882 5883 5884 5883 5883 5882 5883 5885 5886 5887 5887 5888 5888 5889 5890 5891 5892 5893 5894 5894 5895 5896 5897 5897 5898 5898 5899 5899 5899 5899 5899 5899 5899 5899 5899 5899 5898 5898
5862 5864 5866 5869 5872 5875 5878 5879 5877 5876 5877 5880 5881 5880 5880 5881 5881 5881 5882 5884 5885 5886 5886 5887 5888 5888 5889 5890 5891 5892 5893 5893 5894 5895 5896 5896 5897 5897 5898 5898 5898 5898 5898 5898 5898 5898 5898 5898 5898
5858 5860 5863 5865 5869 5873 5875 5874 5872 5874 5875 5877 5877 5877 5877 5877 5876 5877 5879 5881 5883 5883 5884 5885 5886 5886 5887 5888 5889 5890 5891 5891 5892 5893 5894 5895 5895 5896 5896 5896 5896 5897 5897 5897 5897 5897 5897 5897 5897
5855 5857 5860 5862 5866 5870 5871 5869 5869 5872 5874 5874 5874 5874 5873 5871 5870 5873 5876 5878 5880 5881 5882 5882 5883 5884 5885 5886 5887 5888 5888 5889 5890 5891 5891 5892 5893 5893 5894 5894 5894 5895 5895 5895 5895 5896 5895 5896 5896
5852 5854 5856 5860 5865 5868 5867 5865 5866 5869 5871 5872 5870 5870 5868 5867 5869 5870 5874 5876 5877 5878 5879 5880 5880 5881 5882 5883 5884 5885 5886 5887 5888 5888 5889 5890 5890 5891 5891 5892 5892 5893 5893 5894 5894 5894 5894 5894 5894
5847 5851 5853 5857 5862 5864 5862 5861 5862 5865 5867 5867 5866 5865 5863 5863 5865 5866 5871 5873 5874 5875 5876 5877 5877 5878 5879 5880 5881 5882 5883 5884 5885 5885 5886 5887 5887 5888 5888 5889 5889 5890 5891 5891 5891 5892 5892 5892 5892
5844 5848 5850 5855 5860 5860 5858 5857 5859 5860 5862 5862 5861 5861 5860 5859 5862 5865 5868 5869 5871 5872 5873 5873 5874 5875 5876 5877 5878 5879 5880 5881 5882 5882 5883 5883 5884 5885 5885 5886 5886 5887 5888 5888 5889 5889 5890 5890 5890
5841 5845 5848 5853 5856 5856 5855 5854 5855 5857 5857 5858 5858 5857 5857 5857 5861 5862 5864 5865 5866 5867 5868 5869 5871 5871 5873 5874 5875 5876 5876 5877 5878 5879 5879 5880 5881 5881 5882 5882 5883 5884 5884 5885 5885 5886 5887 5887 5888
5838 5841 5843 5846 5848 5849 5851 5851 5852 5852 5853 5853 5854 5854 5854 5854 5856 5858 5860 5861 5862 5862 5863 5866 5867 5867 5870 5871 5871 5872 5873 5874 5875 5875 5876 5876 5877 5877 5878 5878 5878 5880 5881 5881 5882 5883 5883 5884 5885
5834 5836 5838 5840 5842 5844 5846 5847 5848 5849 5849 5850 5851 5850 5850 5850 5852 5854 5857 5858 5857 5857 5860 5862 5864 5864 5866 5867 5868 5868 5869 5870 5870 5871 5872 5872 5873 5874 5875 5874 5875 5875 5876 5877 5878 5879 5880 5881 5882
5830 5832 5833 5835 5837 5839 5841 5842 5843 5845 5847 5846 5846 5845 5847 5847 5849 5850 5852 5852 5851 5852 5854 5858 5860 5860 5862 5863 5863 5864 5864 5865 5865 5866 5867 5867 5869 5870 5871 5871 5871 5871 5872 5872 5872 5874 5875 5876 5877
5826 5828 5830 5831 5833 5835 5837 5838 5841 5842 5843 5844 5845 5844 5845 5846 5846 5847 5847 5846 5844 5847 5849 5852 5855 5857 5858 5858 5859 5860 5860 5861 5862 5862 5862 5862 5863 5864 5865 5866 5866 5866 5868 5868 5867 5869 5871 5872 5873
5823 5825 5827 5828 5830 5832 5834 5836 5838 5839 5838 5840 5841 5842 5843 5843 5842 5841 5840 5840 5840 5843 5845 5848 5851 5853 5853 5854 5854 5855 5856 5856 5857 5857 5857 5855 5857 5859 5861 5861 5862 5861 5863 5864 5864 5865 5866 5867 5868
5820 5822 5825 5827 5828 5830 5833 5834 5835 5835 5836 5836 5837 5838 5839 5838 5837 5837 5836 5836 5838 5840 5843 5844 5846 5847 5848 5849 5849 5850 5851 5851 5852 5852 5852 5851 5852 5854 5856 5857 5857 5857 5858 5859 5860 5861 5861 5862 5863
5818 5821 5824 5826 5827 5829 5830 5831 5832 5832 5834 5834 5833 5834 5835 5835 5834 5833 5832 5833 5836 5837 5839 5841 5842 5841 5843 5844 5844 5844 5845 5846 5846 5846 5846 5846 5846 5848 5850 5851 5851 5852 5853 5854 5855 5856 5856 5857 5858
5818 5821 5824 5826 5825 5827 5829 5829 5830 5829 5831 5831 5830 5831 5831 5831 5832 5831 5830 5832 5833 5834 5835 5836 5836 5836 5838 5838 5839 5839 5840 5840 5840 5840 5840 5840 5841 5842 5844 5845 5845 5846 5848 5849 5849 5850 5851 5851 5852
5817 5821 5824 5825 5824 5826 5827 5827 5827 5826 5827 5828 5828 5828 5828 5827 5828 5829 5828 5829 5830 5831 5831 5831 5832 5833 5833 5833 5833 5833 5834 5834 5834 5834 5834 5834 5835 5836 5837 5838 5838 5839 5841 5842 5842 5843 5844 5845 5845
5813 5817 5821 5822 5822 5823 5825 5826 5824 5824 5825 5825 5824 5823 5824 5824 5825 5826 5825 5826 5826 5827 5827 5827 5827 5827 5827 5827 5827 5828 5828 5828 5828 5829 5829 5829 5829 5829 5830 5831 5832 5833 5834 5835 5835 5836 5837 5838 5838
5810 5814 5818 5819 5819 5820 5822 5823 5822 5821 5821 5822 5822 5821 5820 5821 5822 5822 5822 5823 5823 5822 5822 5822 5821 5821 5821 5821 5821 5821 5821 5822 5822 5822 5822 5822 5823 5823 5824 5824 5825 5826 5826 5827 5828 5829 5830 5830 5831
5809 5812 5814 5816 5817 5818 5820 5820 5819 5817 5817 5818 5818 5817 5817 5818 5818 5818 5818 5818 5818 5817 5817 5816 5816 5816 5815 5815 5815 5815 5815 5815 5815 5815 5816 5816 5816 5816 5817 5817 5818 5819 5819 5820 5821 5822 5823 5823 5824
5806 5809 5811 5813 5814 5815 5816 5816 5814 5813 5813 5813 5812 5813 5814 5814 5814 5814 5814 5813 5813 5812 5812 5811 5810 5810 5809 5808 5808 5808 5808 5808 5808 5808 5808 5809 5809 5809 5810 5810 5811 5811 5811 5812 5813 5814 5815 5816 5817
5803 5807 5808 5809 5810 5811 5812 5812 5809 5808 5807 5807 5807 5809 5810 5810 5810 5809 5809 5808 5808 5807 5806 5805 5805 5804 5803 5802 5802 5801 5801 5801 5801 5801 5801 5801 5802 5802 5802 5802 5803 5803 5804 5805 5805 5807 5808 5809 5810
5802 5805 5806 5806 5806 5807 5808 5809 5807 5804 5804 5804 5804 5805 5806 5806 5805 5805 5804 5803 5803 5801 5800 5799 5799 5798 5797 5796 5795 5795 5794 5794 5794 5794 5794 5794 5794 5794 5795 5795 5795 5795 5796 5797 5797 5798 5800 5801 5802
5800 5803 5804 5804 5803 5803 5803 5804 5803 5801 5801 5801 5801 5802 5802 5801 5801 5800 5799 5798 5797 5796 5794 5793 5792 5791 5790 5789 5788 5788 5787 5786 5786 5786 5786 5786 5787 5787 5787 5787 5787 5788 5788 5789 5790 5791 5792 5793 5795
5799 5800 5801 5801 5801 5799 5799 5799 5796 5797 5798 5799 5799 5799 5798 5797 5796 5795 5794 5792 5791 5790 5788 5787 5785 5784 5783 5782 5781 5780 5780 5779 5778 5778 5778 5778 5779 5779 5779 5779 5779 5780 5780 5781 5782 5783 5784 5786 5787
5797 5798 5799 5799 5798 5797 5796 5795 5794 5794 5795 5796 5796 5795 5794 5793 5791 5790 5788 5787 5785 5783 5782 5780 5778 5777 5776 5774 5774 5773 5772 5771 5771 5771 5770 5770 5771 5771 5771 5771 5772 5772 5773 5773 5774 5775 5777 5778 5780
5795 5796 5796 5797 5797 5796 5794 5795 5791 5789 5789 5790 5791 5790 5789 5788 5786 5784 5782 5780 5778 5777 5775 5773 5771 5770 5768 5767 5766 5765 5764 5763 5763 5763 5763 5763 5764 5764 5764 5764 5764 5765 5765 5766 5768 5769 5770 5771 5773
5792 5793 5794 5795 5795 5794 5792 5793 5788 5787 5786 5786 5785 5784 5783 5782 5780 5778 5776 5773 5771 5769 5767 5765 5763 5762 5760 5759 5758 5757 5756 5756 5755 5755 5755 5755 5756 5756 5757 5757 5757 5758 5759 5760 5761 5763 5764 5766 5767